Location: Wapato
(46.4478°N, 120.4212°W)
Time: 13:35:25
(UTC+00:00)

Vanguard 2 Rocket - Pass Details

Date: 18 May 2026
Orbit: 553 x 3286 km, 32.9° (Epoch: 7 June)

Event Time Altitude Azimuth Distance (km) Brightness Sun altitude
Rises 22:59:31 0° 272° (W) 6,338 11.9 44.5°
Reaches altitude 10° 23:03:47 10° 265° (W) 5,619 11.9 43.8°
Maximum altitude 23:19:27 38° 207° (SSW) 4,328 11.4 41.2°
Drops below altitude 10° 23:36:09 10° 149° (SSE) 5,944 11.0 38.4°
Sets 23:40:53 0° 141° (SE) 6,723 11.1 37.6°
